This demonstration page uses our WeatherBlox Daily Observations layout. Learn more.

Hourly Observations for March 27, 2016

Temp ( °F °C ) Dew Point ( °F °C ) Humidity (%) Winds ( mph kmh ) Pressure ( in mb ) Visibility ( mi km ) Precip ( " mm )
12:15 am 00:15 Clear 25 -3.7 19 -7.1 78 78 NW 7 11 30.27 1025 10 16.0934 0 0
12:35 am 00:35 Clear 27 -3 19 -7.4 72 72 NW 9 15 30.27 1025 10 16.0934 0 0
12:55 am 00:55 Clear 27 -2.9 18 -7.9 69 69 NNW 7 11 30.27 1025 10 16.0934 0 0
1:15 am 01:15 Clear 26 -3.3 18 -7.8 71 71 NNW 8 13 30.27 1025 10 16.0934 0 0
1:35 am 01:35 Clear 26 -3.6 17 -8.2 71 71 NNW 8 13 30.27 1025 10 16.0934 0 0
1:55 am 01:55 Clear 25 -3.8 17 -8.5 70 70 NNW 8 13 30.27 1025 10 16.0934 0 0
2:15 am 02:15 Clear 25 -4 17 -8.6 71 71 NNW 6 9 30.27 1025 10 16.0934 0 0
2:35 am 02:35 Clear 25 -3.9 16 -8.7 70 70 NNW 8 13 30.27 1025 10 16.0934 0 0
2:55 am 02:55 Clear 25 -4.1 17 -8.5 72 72 NW 8 13 30.27 1025 10 16.0934 0 0
3:15 am 03:15 Clear 23 -5 17 -8.4 77 77 NW 8 13 30.27 1025 10 16.0934 0 0
3:35 am 03:35 Clear 23 -5 17 -8.6 76 76 NW 8 13 30.27 1025 10 16.0934 0 0
3:55 am 03:55 Clear 21 -6 16 -9 80 80 NW 6 9 30.3 1026 10 16.0934 0 0
4:15 am 04:15 Clear 20 -6.5 15 -9.7 78 78 NW 7 11 30.3 1026 10 16.0934 0 0
4:35 am 04:35 Clear 19 -7.2 14 -9.8 82 82 NW 8 13 30.3 1026 10 16.0934 0 0
4:55 am 04:55 Clear 19 -7.5 14 -10.1 82 82 NW 7 11 30.3 1026 10 16.0934 0 0
5:15 am 05:15 Clear 19 -7.3 14 -10 81 81 WNW 7 11 30.3 1026 10 16.0934 0 0
5:35 am 05:35 Clear 20 -6.8 14 -9.9 79 79 WNW 7 11 30.3 1026 10 16.0934 0 0
5:55 am 05:55 Clear 19 -7.1 14 -10.1 79 79 WNW 6 9 30.3 1026 10 16.0934 0 0
6:15 am 06:15 Clear 17 -8.1 13 -10.8 81 81 W 6 9 30.3 1026 10 16.0934 0 0
6:35 am 06:35 Clear 18 -7.6 12 -11 77 77 W 6 9 30.3 1026 10 16.0934 0 0
6:55 am 06:55 Clear 19 -7 13 -10.5 76 76 WNW 3 6 30.3 1026 10 16.0934 0 0
7:15 am 07:15 Clear 20 -6.6 13 -10.4 75 75 W 6 9 30.3 1026 10 16.0934 0 0
7:35 am 07:35 Sunny 21 -6.3 13 -10.3 74 74 W 5 7 30.3 1026 10 16.0934 0 0
7:55 am 07:55 Sunny 20 -6.6 14 -10.2 76 76 Calm 30.3 1026 10 16.0934 0 0
8:15 am 08:15 Sunny 23 -5 16 -9 74 74 W 3 6 30.27 1025 10 16.0934 0 0
8:35 am 08:35 Sunny 25 -3.7 19 -7.5 75 75 W 3 6 30.27 1025 10 16.0934 0 0
8:55 am 08:55 Sunny 28 -2.3 19 -7.1 70 70 W 3 6 30.24 1024 10 16.0934 0 0
9:15 am 09:15 Sunny 30 -0.9 21 -6.3 67 67 W 3 6 30.24 1024 10 16.0934 0 0
9:35 am 09:35 Sunny 32 0 21 -6.1 64 64 Calm 30.24 1024 10 16.0934 0 0
9:55 am 09:55 Sunny 35 1.4 21 -5.9 59 59 Calm 30.21 1023 10 16.0934 0 0
10:15 am 10:15 Sunny 36 2.4 22 -5.6 56 56 WNW 5 7 30.21 1023 10 16.0934 0 0
10:35 am 10:35 Sunny 39 4.1 23 -5 52 52 W 5 7 30.18 1022 10 16.0934 0 0
10:55 am 10:55 Sunny 42 5.6 23 -5.2 46 46 WNW 6 9 30.18 1022 10 16.0934 0 0
11:15 am 11:15 Sunny 44 6.6 20 -6.7 38 38 W 6 9 30.18 1022 10 16.0934 0 0
11:35 am 11:35 Sunny 45 7.2 19 -7.3 35 35 SW 5 7 30.15 1021 10 16.0934 0 0
11:55 am 11:55 Sunny 47 8.5 16 -8.7 29 29 SW 6 9 30.15 1021 10 16.0934 0 0
12:15 pm 12:15 Sunny 49 9.4 16 -9 27 27 W 7 11 30.15 1021 10 16.0934 0 0
12:35 pm 12:35 Sunny 50 10.1 17 -8.1 27 27 WSW 6 9 30.15 1021 10 16.0934 0 0
12:55 pm 12:55 Sunny 51 10.3 17 -8.1 27 27 WSW 8 13 30.09 1019 10 16.0934 0 0
1:15 pm 13:15 Sunny 52 11.2 18 -8 25 25 WSW 9 15 30.09 1019 10 16.0934 0 0
1:35 pm 13:35 Sunny 52 11.3 20 -6.8 28 28 WSW 12 19 30.09 1019 10 16.0934 0 0
1:55 pm 13:55 Sunny 55 12.5 20 -6.7 26 26 WSW 7 11 30.09 1019 10 16.0934 0 0
2:15 pm 14:15 Sunny 55 12.6 20 -6.7 26 26 W 7 11 30.06 1018 10 16.0934 0 0
2:35 pm 14:35 Sunny 56 13.1 20 -6.5 25 25 W 8 13 30.06 1018 10 16.0934 0 0
2:55 pm 14:55 Sunny 56 13.6 20 -6.5 24 24 Calm 30.03 1017 10 16.0934 0 0
3:15 pm 15:15 Sunny 57 14 20 -6.8 23 23 W 13 20 30 1016 10 16.0934 0 0
3:35 pm 15:35 Sunny 58 14.3 20 -6.8 23 23 S 3 6 30 1016 10 16.0934 0 0
3:55 pm 15:55 Sunny 58 14.7 19 -7.1 22 22 W 9 15 30 1016 10 16.0934 0 0
4:15 pm 16:15 Sunny 59 15.2 16 -8.7 18 18 W 12 19 30 1016 10 16.0934 0 0
4:35 pm 16:35 Sunny 60 15.4 13 -10.3 16 16 W 13 20 30 1016 10 16.0934 0 0
4:55 pm 16:55 Sunny 60 15.3 13 -10.3 16 16 SW 7 11 30 1016 10 16.0934 0 0
5:15 pm 17:15 Sunny 61 15.9 14 -10.2 16 16 W 3 6 29.97 1015 10 16.0934 0 0
5:35 pm 17:35 Sunny 60 15.6 15 -9.4 17 17 WSW 6 9 29.97 1015 10 16.0934 0 0
5:55 pm 17:55 Sunny 60 15.6 15 -9.7 17 17 WSW 9 15 29.97 1015 10 16.0934 0 0
6:15 pm 18:15 Sunny 60 15.5 15 -9.7 17 17 WSW 5 7 29.97 1015 10 16.0934 0 0
6:35 pm 18:35 Sunny 60 15.3 15 -9.5 17 17 SW 3 6 29.97 1015 10 16.0934 0 0
6:55 pm 18:55 Sunny 59 15 14 -10.2 17 17 WSW 6 9 29.97 1015 10 16.0934 0 0
7:15 pm 19:15 Sunny 58 14.5 15 -9.5 18 18 SW 7 11 29.97 1015 10 16.0934 0 0
7:35 pm 19:35 Sunny 56 13.3 16 -8.7 21 21 SW 5 7 29.97 1015 10 16.0934 0 0
7:55 pm 19:55 Sunny 54 12.3 16 -8.9 22 22 SSW 5 7 30 1016 10 16.0934 0 0
8:15 pm 20:15 Clear 52 10.9 15 -9.2 24 24 SSW 7 11 30 1016 10 16.0934 0 0
8:35 pm 20:35 Clear 51 10.3 16 -9 25 25 S 5 7 30 1016 10 16.0934 0 0
8:55 pm 20:55 Clear 46 7.9 16 -9 29 29 SSW 5 7 30.03 1017 10 16.0934 0 0
9:15 pm 21:15 Clear 46 7.6 16 -9.1 30 30 SSW 6 9 30.03 1017 10 16.0934 0 0
9:35 pm 21:35 Clear 45 7.4 15 -9.2 30 30 SSW 7 11 30.03 1017 10 16.0934 0 0
9:55 pm 21:55 Clear 44 6.7 15 -9.3 31 31 SSW 7 11 30.03 1017 10 16.0934 0 0
10:15 pm 22:15 Clear 43 5.9 15 -9.2 33 33 S 9 15 30.06 1018 10 16.0934 0 0
10:35 pm 22:35 Clear 41 5.1 16 -9 36 36 S 8 13 30.06 1018 10 16.0934 0 0
10:55 pm 22:55 Clear 41 5.1 15 -9.2 35 35 S 8 13 30.06 1018 10 16.0934 0 0
11:15 pm 23:15 Clear 40 4.4 16 -9.1 37 37 S 7 11 30.06 1018 10 16.0934 0 0
11:35 pm 23:35 Clear 39 3.9 17 -8.6 40 40 S 5 7 30.06 1018 10 16.0934 0 0
11:55 pm 23:55 Clear 39 4.1 17 -8.3 40 40 S 7 11 30.06 1018 10 16.0934 0 0

Powered by AerisWeather